This is the latest recevied weather packets stored in our database for station/object WP4PW. If no packets are shown the sender has not sent any weather packets the latest 10 day(s).
| Time | Temp. | Humidity | Pressure | Rain* | Wind** | Luminosity | Snow |
|---|---|---|---|---|---|---|---|
| 1778073717 | 28.89° C | 80% | 1023.2 hPa | 0 mm | - | 534 W/m² | - |
| 1778073415 | 30° C | 77% | 1023.1 hPa | 0 mm | - | 524 W/m² | - |
| 1778073111 | 29.44° C | 79% | 1023.2 hPa | 0 mm | - | 522 W/m² | - |
| 1778072808 | 29.44° C | 78% | 1023.1 hPa | 0 mm | - | 506 W/m² | - |
| 1778072505 | 28.89° C | 78% | 1023 hPa | 0 mm | - | 537 W/m² | - |
| 1778072204 | 28.89° C | 78% | 1023 hPa | 0 mm | - | 519 W/m² | - |
| 1778071901 | 29.44° C | 79% | 1022.9 hPa | 0 mm | - | 518 W/m² | - |
| 1778071599 | 28.89° C | 78% | 1022.7 hPa | 0 mm | - | 471 W/m² | - |
| 1778071296 | 28.89° C | 80% | 1022.7 hPa | 0 mm | - | 491 W/m² | - |
| 1778070993 | 29.44° C | 81% | 1022.6 hPa | 0 mm | - | 188 W/m² | - |
| 1778070692 | 28.89° C | 81% | 1022.9 hPa | 0 mm | - | 418 W/m² | - |
| 1778070388 | 28.89° C | 80% | 1022.9 hPa | 0 mm | - | 333 W/m² | - |
| 1778070086 | 28.33° C | 79% | 1022.7 hPa | 0 mm | - | 380 W/m² | - |
| 1778069784 | 28.89° C | 80% | 1022.7 hPa | 0 mm | - | 225 W/m² | - |
| 1778069480 | 28.89° C | 80% | 1022.7 hPa | 0 mm | - | 243 W/m² | - |
| 1778069178 | 28.33° C | 83% | 1022.6 hPa | 0 mm | - | 206 W/m² | - |
| 1778068875 | 27.78° C | 84% | 1022.4 hPa | 0 mm | - | 196 W/m² | - |
| 1778068574 | 28.33° C | 84% | 1022.6 hPa | 0 mm | - | 100 W/m² | - |
| 1778068271 | 28.33° C | 83% | 1022.7 hPa | 0 mm | - | 272 W/m² | - |
| 1778067968 | 28.89° C | 81% | 1022.4 hPa | 0 mm | - | 233 W/m² | - |
| 1778067667 | 28.89° C | 81% | 1022.3 hPa | 0 mm | - | 275 W/m² | - |
| 1778067364 | 28.89° C | 82% | 1022.4 hPa | 0 mm | - | 260 W/m² | - |
| 1778067061 | 28.33° C | 83% | 1022.4 hPa | 0 mm | - | 243 W/m² | - |
| 1778066757 | 28.33° C | 83% | 1022.2 hPa | 0 mm | - | 257 W/m² | - |
| 1778066455 | 27.78° C | 84% | 1022.1 hPa | 0 mm | - | 181 W/m² | - |
* Rain latest hour (hover to see other rain measurements)
** Current wind speed in m/s (hover to see current wind gust speed)